Airfield :
LOGIN :

Register | Disclaimer

   EN    FR    IT 

 










Legend :    VFR   Marginal VFR   IFR   Intensive IFR   Very Intensive IFR
Visi :
Ceiling :
>= 8 km
>= 3000ft
5 to 8 km
1000 to 3000 ft
1500m to 5 km
500 to 1000 ft
800 to 1500m
200 to 500 ft
< 800m
< 200 ft
Symbols :   Thunderstorms  Fog  Heavy snow  Heavy precipitations  Wind > 20 kt
SIGMETs :     Misc.  Thunderstorms  Icing  Turbulence  Mountain Waves  Volcanic Ashes






- Airport Elevation : 319 ft


EIME - Casement Air Base

CURRENT METAR :
  • 042300Z 34016G28KT 9999 -RA FEW016 BKN022 07/04 Q0986

EXPIRED METARs :
  • 042200Z 34014KT 9999 -RA FEW016 OVC022 07/04 Q0985
  • 042100Z 34014G29KT 300V020 9000 -RA OVC022 07/05 Q0984

TAF TAF EIME
Valid from the 04 at 21:00 until the 05 at 06:00 UTC


042000Z 0421/0506 34017KT 9999 FEW012 BKN025
TEMPO 0421/0504 34018G28KT
TEMPO 0421/0424 -RA BKN012
PROB30
TEMPO 0500/0506 BKN012



MET'MAP, your aeronautical weather chart ! - Copyright ORBIFLY December 2007 - Disclaimer

ORBIFLY MET'MAP TEAM :

Programming & Development : Alexandra Zaïnal
Concept & original design : Baudouin d'Aumeries
Assistance for programming : Marc-Olivier Méhu
Technical & hardware support : Manuel Goepfert

Contact : metmap@orbifly.com




SOURCES & CREDITS :

   NOAA